When you browse on this site, cookies collect data to enhance your experience and personalize the content and advertising you see.
Visit our Privacy Policy to learn more. By continuing to use the site, you agree to this use of cookies and data.
  • In France
  • List of Countries
  • For 7 days
  • Water Temperature
  • Weather Map
  • Weather Widgets
  • user-avatar
    Login

    Hourly Weather Toronto

    Today, 10 April, Friday

    Time Temperature Precipitation Wind Pressure Humidity
    00:00 -1°C° 0 mm 8 mps 734 mmHg 69%
    01:00 -1°C° 0 mm 8 mps 734 mmHg 69%
    02:00 -2°C° 0 mm 8 mps 734 mmHg 69%
    03:00 -2°C° 0 mm 8 mps 734 mmHg 69%
    04:00 -4°C° 0 mm 9 mps 734 mmHg 69%
    05:00 -4°C° 0 mm 9 mps 735 mmHg 70%
    06:00 -4°C° 0 mm 9 mps 735 mmHg 70%
    07:00 -4°C° 0 mm 10 mps 736 mmHg 70%
    08:00 -3°C° 0 mm 10 mps 737 mmHg 67%
    09:00 -2°C° 0 mm 10 mps 737 mmHg 63%
    10:00 0°C° 0 mm 10 mps 738 mmHg 60%
    11:00 0°C° 0 mm 9 mps 739 mmHg 57%
    12:00 +1°C° 0 mm 9 mps 739 mmHg 55%
    13:00 +2°C° 0 mm 8 mps 740 mmHg 52%
    14:00 +2°C° 0 mm 8 mps 740 mmHg 52%
    15:00 +2°C° 0 mm 8 mps 741 mmHg 51%
    16:00 +4°C° 0 mm 8 mps 741 mmHg 50%
    17:00 +3°C° 0 mm 7 mps 742 mmHg 52%
    18:00 +2°C° 0 mm 7 mps 742 mmHg 54%
    19:00 0°C° 0 mm 7 mps 743 mmHg 55%
    20:00 -1°C° 0 mm 7 mps 743 mmHg 56%
    21:00 -1°C° 0 mm 7 mps 744 mmHg 57%
    22:00 -1°C° 0 mm 7 mps 744 mmHg 58%
    23:00 -2°C° 0 mm 6 mps 745 mmHg 61%

    Tomorrow, 11 April, Saturday

    Time Temperature Precipitation Wind Pressure Humidity
    00:00 -2°C° 0 mm 6 mps 745 mmHg 63%
    01:00 -2°C° 0 mm 6 mps 745 mmHg 65%
    02:00 -1°C° 0 mm 5 mps 746 mmHg 68%
    03:00 -2°C° 0 mm 5 mps 746 mmHg 70%
    04:00 -2°C° 0 mm 5 mps 746 mmHg 72%
    05:00 -2°C° 0 mm 5 mps 746 mmHg 69%
    06:00 -2°C° 0 mm 5 mps 747 mmHg 66%
    07:00 -2°C° 0 mm 5 mps 747 mmHg 63%
    08:00 0°C° 0 mm 5 mps 747 mmHg 54%
    09:00 +1°C° 0 mm 5 mps 748 mmHg 45%
    10:00 +3°C° 0 mm 5 mps 748 mmHg 36%
    11:00 +5°C° 0 mm 4 mps 748 mmHg 37%
    12:00 +6°C° 0 mm 4 mps 748 mmHg 37%
    13:00 +7°C° 0 mm 4 mps 747 mmHg 38%
    14:00 +8°C° 0 mm 4 mps 747 mmHg 38%
    15:00 +8°C° 0 mm 4 mps 747 mmHg 39%
    16:00 +8°C° 0 mm 4 mps 747 mmHg 39%
    17:00 +8°C° 0 mm 4 mps 747 mmHg 43%
    18:00 +8°C° 0 mm 3 mps 747 mmHg 46%
    19:00 +7°C° 0 mm 2 mps 747 mmHg 49%
    20:00 +7°C° 0 mm 2 mps 747 mmHg 52%
    21:00 +6°C° 0 mm 2 mps 747 mmHg 55%
    22:00 +5°C° 0 mm 3 mps 747 mmHg 58%
    23:00 +5°C° 0 mm 3 mps 747 mmHg 62%

    Day after tomorrow, 12 April, Sunday

    Time Temperature Precipitation Wind Pressure Humidity
    00:00 +5°C° 0 mm 3 mps 747 mmHg 65%
    01:00 +5°C° 0 mm 3 mps 746 mmHg 69%
    02:00 +5°C° 0.4 mm 3 mps 746 mmHg 76%
    03:00 +5°C° 0.4 mm 4 mps 746 mmHg 83%
    04:00 +5°C° 0.4 mm 4 mps 745 mmHg 90%
    05:00 +5°C° 0.4 mm 4 mps 745 mmHg 91%
    06:00 +6°C° 0.4 mm 4 mps 746 mmHg 91%
    07:00 +6°C° 0.4 mm 4 mps 746 mmHg 92%
    08:00 +6°C° 0.2 mm 4 mps 746 mmHg 89%
    09:00 +7°C° 0.2 mm 4 mps 746 mmHg 87%
    10:00 +7°C° 0.2 mm 4 mps 746 mmHg 84%
    11:00 +7°C° 0.2 mm 4 mps 746 mmHg 85%
    12:00 +8°C° 0.2 mm 3 mps 746 mmHg 86%
    13:00 +8°C° 0.2 mm 3 mps 746 mmHg 87%
    14:00 +8°C° 0.8 mm 2 mps 746 mmHg 89%
    15:00 +7°C° 0.8 mm 2 mps 745 mmHg 92%
    16:00 +7°C° 0.8 mm 2 mps 745 mmHg 94%
    17:00 +7°C° 1.1 mm 3 mps 745 mmHg 95%
    18:00 +7°C° 1.1 mm 3 mps 745 mmHg 96%
    19:00 +6°C° 1.1 mm 4 mps 745 mmHg 97%
    20:00 +6°C° 1 mm 4 mps 744 mmHg 97%
    21:00 +7°C° 1 mm 5 mps 744 mmHg 98%
    22:00 +7°C° 1 mm 5 mps 743 mmHg 98%
    23:00 +7°C° 0.4 mm 6 mps 741 mmHg 98%

    13 April, Monday

    Time Temperature Precipitation Wind Pressure Humidity
    00:00 +7°C° 0.4 mm 6 mps 740 mmHg 98%
    01:00 +6°C° 0.4 mm 7 mps 738 mmHg 98%
    02:00 +6°C° 1.9 mm 7 mps 736 mmHg 98%
    03:00 +8°C° 1.9 mm 6 mps 734 mmHg 98%
    04:00 +8°C° 1.9 mm 6 mps 732 mmHg 98%
    05:00 +9°C° 2 mm 6 mps 730 mmHg 96%
    06:00 +10°C° 2 mm 6 mps 728 mmHg 95%
    07:00 +10°C° 2 mm 6 mps 727 mmHg 93%
    08:00 +11°C° 1.8 mm 6 mps 725 mmHg 93%
    09:00 +13°C° 1.8 mm 6 mps 724 mmHg 93%
    10:00 +13°C° 1.8 mm 6 mps 723 mmHg 93%
    11:00 +13°C° 0.1 mm 8 mps 723 mmHg 88%
    12:00 +13°C° 0.1 mm 11 mps 724 mmHg 82%
    13:00 +14°C° 0.1 mm 13 mps 724 mmHg 77%
    14:00 +12°C° 0 mm 14 mps 726 mmHg 71%
    15:00 +9°C° 0 mm 15 mps 728 mmHg 65%
    16:00 +6°C° 0 mm 16 mps 730 mmHg 59%
    17:00 +5°C° 0 mm 15 mps 731 mmHg 60%
    18:00 +4°C° 0 mm 15 mps 732 mmHg 60%
    19:00 +3°C° 0 mm 14 mps 734 mmHg 61%
    20:00 +1°C° 0.1 mm 14 mps 735 mmHg 65%
    21:00 0°C° 0.1 mm 13 mps 736 mmHg 69%
    22:00 -1°C° 0.1 mm 13 mps 737 mmHg 73%
    23:00 -1°C° 0 mm 13 mps 738 mmHg 66%

    14 April, Tuesday

    Time Temperature Precipitation Wind Pressure Humidity
    00:00 -2°C° 0 mm 12 mps 738 mmHg 59%
    01:00 -2°C° 0 mm 12 mps 739 mmHg 52%
    02:00 -3°C° 0 mm 11 mps 739 mmHg 59%
    03:00 -3°C° 0 mm 11 mps 740 mmHg 65%
    04:00 -3°C° 0 mm 10 mps 740 mmHg 71%
    05:00 -3°C° 0 mm 11 mps 741 mmHg 65%
    06:00 -3°C° 0 mm 11 mps 742 mmHg 59%
    07:00 -3°C° 0 mm 11 mps 742 mmHg 54%
    08:00 -2°C° 0 mm 11 mps 743 mmHg 53%
    09:00 -1°C° 0 mm 11 mps 744 mmHg 53%
    10:00 -1°C° 0 mm 12 mps 744 mmHg 52%
    11:00 0°C° 0.1 mm 12 mps 745 mmHg 50%
    12:00 0°C° 0.1 mm 12 mps 746 mmHg 48%
    13:00 +2°C° 0.1 mm 12 mps 747 mmHg 47%
    14:00 +2°C° 0.1 mm 11 mps 747 mmHg 47%
    15:00 +1°C° 0.1 mm 11 mps 747 mmHg 48%
    16:00 +1°C° 0.1 mm 10 mps 748 mmHg 49%
    17:00 0°C° 0.2 mm 10 mps 748 mmHg 55%
    18:00 0°C° 0.2 mm 9 mps 749 mmHg 61%
    19:00 -1°C° 0.2 mm 9 mps 749 mmHg 67%
    20:00 -2°C° 0.3 mm 8 mps 750 mmHg 73%
    21:00 -2°C° 0.3 mm 7 mps 751 mmHg 79%
    22:00 -3°C° 0.3 mm 7 mps 751 mmHg 86%
    23:00 -3°C° 0.2 mm 6 mps 752 mmHg 84%

    15 April, Wednesday

    Time Temperature Precipitation Wind Pressure Humidity
    00:00 -3°C° 0.2 mm 6 mps 752 mmHg 83%
    01:00 -4°C° 0.2 mm 6 mps 752 mmHg 82%
    02:00 -4°C° 0 mm 6 mps 752 mmHg 78%
    03:00 -4°C° 0 mm 6 mps 752 mmHg 74%
    04:00 -4°C° 0 mm 6 mps 752 mmHg 71%
    05:00 -4°C° 0 mm 6 mps 752 mmHg 69%
    06:00 -3°C° 0 mm 6 mps 752 mmHg 67%
    07:00 -3°C° 0 mm 6 mps 753 mmHg 65%
    08:00 -2°C° 0 mm 7 mps 753 mmHg 59%
    09:00 -1°C° 0 mm 7 mps 753 mmHg 53%
    10:00 0°C° 0 mm 7 mps 753 mmHg 47%
    11:00 +2°C° 0 mm 7 mps 753 mmHg 44%
    12:00 +2°C° 0 mm 7 mps 753 mmHg 42%
    13:00 +3°C° 0 mm 7 mps 753 mmHg 39%
    14:00 +3°C° 0 mm 7 mps 753 mmHg 38%
    15:00 +3°C° 0 mm 6 mps 752 mmHg 37%
    16:00 +4°C° 0 mm 6 mps 752 mmHg 36%
    17:00 +3°C° 0 mm 5 mps 752 mmHg 39%
    18:00 +3°C° 0 mm 4 mps 752 mmHg 42%
    19:00 +1°C° 0 mm 4 mps 753 mmHg 45%
    20:00 +2°C° 0 mm 3 mps 753 mmHg 48%
    21:00 +2°C° 0 mm 2 mps 753 mmHg 50%
    22:00 +3°C° 0 mm 1 mps 753 mmHg 52%
    23:00 +3°C° 0 mm 1 mps 752 mmHg 53%
    Show more